| time (UTC) | temp C | wind direction | speed KPH | gust KPH | rain 1hr cm | rain 24hr cm | rain mn cm | humidity % | barometer mb |
| 20260506140017 | -17 | 0.0 | 0.0 | 0.00 | 0.15 | 0.00 | 1004.0 | ||
| 20260506134513 | -17 | 0.0 | 0.0 | 0.00 | 0.15 | 0.00 | 1004.2 | ||
| 20260506133009 | -17 | 0.0 | 0.0 | 0.00 | 0.15 | 0.00 | 1004.6 | ||
| 20260506131617 | -17 | 0.0 | 0.0 | 0.00 | 0.15 | 0.00 | 1004.8 | ||
| 20260506130002 | -17 | 0.0 | 0.0 | 0.00 | 0.15 | 0.00 | 1005.0 | ||
| 20260506124557 | -17 | 0.0 | 0.0 | 0.00 | 0.15 | 0.00 | 1005.2 | ||
| 20260506123056 | -17 | 0.0 | 0.0 | 0.00 | 0.15 | 0.00 | 1004.8 | ||
| 20260506121555 | -17 | 0.0 | 0.0 | 0.00 | 0.15 | 0.00 | 1004.8 | ||
| 20260506120058 | -17 | 0.0 | 0.0 | 0.00 | 0.15 | 0.00 | 1004.8 | ||
| 20260506114541 | -17 | 0.0 | 0.0 | 0.00 | 0.15 | 0.00 | 1005.1 | ||
| 20260506113037 | -17 | 0.0 | 0.0 | 0.00 | 0.15 | 0.00 | 1005.0 | ||
| 20260506111533 | -17 | 0.0 | 0.0 | 0.00 | 0.15 | 0.00 | 1005.0 | ||
| 20260506110030 | -17 | 0.0 | 0.0 | 0.00 | 0.15 | 0.00 | 1005.1 | ||
| 20260506104536 | -17 | 0.0 | 0.0 | 0.00 | 0.15 | 0.00 | 1005.1 | ||
| 20260506103036 | -17 | 0.0 | 0.0 | 0.00 | 0.15 | 0.00 | 1005.1 | ||
| 20260506101516 | -17 | 0.0 | 0.0 | 0.00 | 0.15 | 0.00 | 1004.8 | ||
| 20260506100012 | -17 | 0.0 | 0.0 | 0.00 | 0.15 | 0.00 | 1004.7 | ||
| 20260506094511 | -17 | 0.0 | 0.0 | 0.00 | 0.15 | 0.00 | 1004.6 | ||
| 20260506093003 | -17 | 0.0 | 0.0 | 0.00 | 0.15 | 0.00 | 1004.6 | ||
| 20260506091602 | -17 | 0.0 | 0.0 | 0.00 | 0.15 | 0.00 | 1004.8 | ||
| 20260506090104 | 11 | 0.0 | 0.0 | 0.00 | 0.15 | 0.00 | 92 | 1004.9 | |
| 20260506084629 | 11 | 0.0 | 0.0 | 0.00 | 0.15 | 0.00 | 92 | 1005.2 | |
| 20260506083056 | 11 | 0.0 | 0.0 | 0.00 | 0.15 | 0.00 | 93 | 1005.4 | |
| 20260506081559 | 11 | 0.0 | 0.0 | 0.00 | 0.15 | 0.00 | 93 | 1005.4 | |
| 20260506073051 | 11 | 0.0 | 0.0 | 0.00 | 0.15 | 0.00 | 92 | 1004.9 | |
| 20260506071550 | 11 | 0.0 | 0.0 | 0.00 | 0.15 | 0.00 | 91 | 1005.0 | |
| 20260506061543 | 11 | 0.0 | 0.0 | 0.00 | 0.15 | 0.00 | 90 | 1005.7 | |
| 20260506044537 | 12 | 0.0 | 0.0 | 0.00 | 0.15 | 0.00 | 87 | 1006.8 | |
| 20260506043030 | 12 | 0.0 | 0.0 | 0.00 | 0.15 | 0.00 | 87 | 1006.7 | |
| 20260506041529 | 12 | 0.0 | 0.0 | 0.00 | 0.15 | 0.00 | 86 | 1006.9 | |
| 20260506040032 | 12 | 0.0 | 0.0 | 0.00 | 0.15 | 0.00 | 85 | 1007.1 | |
| 20260506034524 | 12 | 0.0 | 0.0 | 0.00 | 0.15 | 0.15 | 85 | 1007.4 | |
| 20260506033021 | 13 | 0.0 | 0.0 | 0.00 | 0.15 | 0.15 | 86 | 1007.3 | |
| 20260506031521 | 13 | 0.0 | 0.0 | 0.00 | 0.15 | 0.15 | 86 | 1007.2 | |
| 20260506030022 | 13 | 0.0 | 0.0 | 0.00 | 0.15 | 0.15 | 86 | 1007.1 | |
| 20260506024520 | 14 | 0.0 | 0.0 | 0.00 | 0.15 | 0.15 | 85 | 1007.2 | |
| 20260506023033 | 14 | 0.0 | 0.0 | 0.00 | 0.15 | 0.15 | 84 | 1007.1 | |
| 20260506021530 | 15 | 0.0 | 0.0 | 0.00 | 0.15 | 0.15 | 83 | 1006.8 | |
| 20260506020015 | 15 | 0.0 | 0.0 | 0.00 | 0.15 | 0.15 | 82 | 1006.7 | |
| 20260506014518 | 15 | 0.0 | 0.0 | 0.00 | 0.15 | 0.15 | 80 | 1006.6 | |
| 20260506013015 | 15 | 0.0 | 0.0 | 0.00 | 0.15 | 0.15 | 80 | 1006.4 | |
| 20260506011513 | 15 | 0.0 | 0.0 | 0.00 | 0.15 | 0.15 | 82 | 1006.3 | |
| 20260506010014 | 15 | 0.0 | 0.0 | 0.00 | 0.15 | 0.15 | 82 | 1006.1 | |
| 20260506004513 | 15 | 0.0 | 0.0 | 0.00 | 0.15 | 0.15 | 83 | 1005.8 | |
| 20260506003013 | 15 | 0.0 | 0.0 | 0.00 | 0.15 | 0.15 | 82 | 1005.9 | |
| 20260506001510 | 15 | 0.0 | 0.0 | 0.00 | 0.15 | 0.15 | 81 | 1005.6 | |
| 20260506000009 | 15 | 0.0 | 0.0 | 0.00 | 0.15 | 0.15 | 79 | 1005.5 | |
| 20260505234513 | 16 | 0.0 | 0.0 | 0.00 | 0.15 | 0.15 | 79 | 1005.6 | |
| 20260505233008 | 16 | 0.0 | 0.0 | 0.00 | 0.15 | 0.15 | 80 | 1005.3 | |
| 20260505231512 | 16 | 0.0 | 0.0 | 0.00 | 0.15 | 0.15 | 82 | 1005.2 | |
| 20260505230011 | 16 | 0.0 | 0.0 | 0.00 | 0.15 | 0.15 | 83 | 1005.1 | |
| 20260505224508 | 16 | 0.0 | 0.0 | 0.00 | 0.15 | 0.15 | 83 | 1005.0 | |
| 20260505223005 | 16 | 0.0 | 0.0 | 0.00 | 0.15 | 0.15 | 83 | 1005.1 | |
| 20260505221506 | 16 | 0.0 | 0.0 | 0.00 | 0.15 | 0.15 | 82 | 1005.2 | |
| 20260505220005 | 16 | 0.0 | 0.0 | 0.00 | 0.15 | 0.15 | 85 | 1004.7 | |
| 20260505214505 | 16 | 0.0 | 0.0 | 0.00 | 0.15 | 0.15 | 87 | 1004.6 | |
| 20260505213011 | 16 | 0.0 | 0.0 | 0.00 | 0.15 | 0.15 | 84 | 1004.5 | |
| 20260505211508 | 16 | 0.0 | 0.0 | 0.03 | 0.15 | 0.15 | 86 | 1004.4 | |
| 20260505210002 | 16 | 0.0 | 0.0 | 0.08 | 0.15 | 0.15 | 84 | 1004.5 | |
| 20260505204501 | 16 | 0.0 | 0.0 | 0.15 | 0.15 | 0.15 | 82 | 1004.8 | |
| 20260505203121 | 16 | 0.0 | 0.0 | 0.15 | 0.15 | 0.15 | 80 | 1005.0 | |
| 20260505201604 | 17 | 0.0 | 0.0 | 0.13 | 0.13 | 0.13 | 77 | 1004.9 | |
| 20260505200059 | 19 | 0.0 | 0.0 | 0.08 | 0.08 | 0.08 | 66 | 1004.9 | |
| 20260505194558 | 22 | 0.0 | 0.0 | 0.00 | 0.00 | 0.00 | 44 | 1003.6 | |
| 20260505193056 | 22 | 0.0 | 0.0 | 0.00 | 0.00 | 0.00 | 42 | 1003.2 | |
| 20260505191611 | 23 | 0.0 | 0.0 | 0.00 | 0.00 | 0.00 | 41 | 1003.1 | |
| 20260505190052 | 23 | 0.0 | 0.0 | 0.00 | 0.00 | 0.00 | 44 | 1003.3 | |
| 20260505184551 | 22 | 0.0 | 0.0 | 0.00 | 0.00 | 0.00 | 47 | 1003.6 | |
| 20260505183049 | 22 | 0.0 | 0.0 | 0.00 | 0.00 | 0.00 | 49 | 1004.0 | |
| 20260505181549 | 22 | 0.0 | 0.0 | 0.00 | 0.00 | 0.00 | 49 | 1004.2 | |
| 20260505180050 | 21 | 0.0 | 0.0 | 0.00 | 0.00 | 0.00 | 57 | 1004.5 | |
| 20260505174547 | 21 | 0.0 | 0.0 | 0.00 | 0.00 | 0.00 | 58 | 1004.6 | |
| 20260505173043 | 22 | 0.0 | 0.0 | 0.00 | 0.00 | 0.00 | 47 | 1004.7 | |
| 20260505171547 | 22 | 0.0 | 0.0 | 0.00 | 0.00 | 0.00 | 48 | 1004.7 | |
| 20260505164543 | 23 | 0.0 | 0.0 | 0.00 | 0.00 | 0.00 | 46 | 1004.5 | |
| 20260505163039 | 23 | 0.0 | 0.0 | 0.00 | 0.00 | 0.00 | 46 | 1005.0 | |
| 20260505161537 | 23 | 0.0 | 0.0 | 0.00 | 0.00 | 0.00 | 48 | 1005.1 | |
| 20260505153028 | 21 | 0.0 | 0.0 | 0.00 | 0.00 | 0.00 | 53 | 1005.3 | |
| 20260505151526 | 21 | 0.0 | 0.0 | 0.00 | 0.00 | 0.00 | 51 | 1005.2 |